FW8431 Weather Reports


Display with metric or nautical units.
time (UTC)temp
F
wind
direction
speed
MPH
gust
MPH
rain 1hr
in
rain 24hr
in
rain mn
in
humidity
%
barometer
mb
20260508224610 62 135 1.0 4.0 0.00 0.00 0.00 64 1014.8
20260508223052 62 52 2.0 7.0 0.00 0.00 0.00 62 1014.9
20260508221553 63 352 2.0 10.0 0.00 0.00 0.00 62 1015.0
20260508220048 65 90 0.0 5.0 0.00 0.00 0.00 58 1014.7
20260508214550 64 142 1.0 7.0 0.00 0.00 0.00 59 1014.7
20260508213052 64 80 2.0 7.0 0.00 0.00 0.00 59 1014.9
20260508211549 63 130 1.0 10.0 0.00 0.00 0.00 62 1014.7
20260508210050 63 133 4.0 9.0 0.00 0.00 0.00 61 1014.7
20260508204554 63 348 3.0 9.0 0.00 0.00 0.00 61 1014.9
20260508203055 63 115 3.0 9.0 0.00 0.00 0.00 59 1015.0
20260508201551 63 133 4.0 9.0 0.00 0.00 0.00 60 1014.9
20260508194602 64 88 2.0 6.0 0.00 0.00 0.00 61 1015.5
20260508193049 63 113 1.0 8.0 0.00 0.00 0.00 57 1015.8
20260508191556 63 119 2.0 8.0 0.00 0.00 0.00 61 1016.0
20260508190054 62 163 5.0 11.0 0.00 0.00 0.00 58 1016.0
20260508184558 63 254 4.0 11.0 0.00 0.00 0.00 58 1016.4
20260508183050 62 42 2.0 8.0 0.00 0.00 0.00 59 1016.6
20260508181556 63 126 1.0 10.0 0.00 0.00 0.00 60 1016.7
20260508180058 62 247 5.0 9.0 0.00 0.00 0.00 57 1016.7
20260508174611 61 254 3.0 10.0 0.00 0.00 0.00 59 1017.0
20260508173053 61 58 3.0 9.0 0.00 0.00 0.00 60 1017.4
20260508171554 60 167 3.0 10.0 0.00 0.00 0.00 60 1017.3
20260508170056 60 0 1.0 8.0 0.00 0.00 0.00 60 1017.6
20260508164551 59 92 1.0 10.0 0.00 0.00 0.00 61 1017.8
20260508163056 59 79 2.0 9.0 0.00 0.00 0.00 58 1018.1
20260508161556 59 125 3.0 8.0 0.00 0.00 0.00 61 1018.3
20260508160055 58 142 4.0 8.0 0.00 0.00 0.00 59 1018.5
20260508154558 58 132 2.0 6.0 0.00 0.00 0.00 58 1018.6
20260508153057 58 194 1.0 6.0 0.00 0.00 0.00 63 1018.8
20260508151558 57 122 2.0 6.0 0.00 0.00 0.00 61 1018.9
20260508150053 56 211 2.0 5.0 0.00 0.00 0.00 62 1018.8
20260508144552 56 119 1.0 4.0 0.00 0.00 0.00 61 1018.9
20260508143058 55 109 0.0 3.0 0.00 0.00 0.00 64 1019.2
20260508141552 54 69 0.0 3.0 0.00 0.00 0.00 70 1019.3
20260508140059 52 0 0.0 2.0 0.00 0.00 0.00 70 1019.5
20260508134553 51 0 1.0 3.0 0.00 0.00 0.00 75 1019.5
20260508133057 49 267 0.0 2.0 0.00 0.00 0.00 81 1019.5
20260508131556 48 0 1.0 3.0 0.00 0.00 0.00 87 1019.7
20260508130105 47 355 0.0 1.0 0.00 0.00 0.00 90 1019.6
20260508124555 46 102 0.0 1.0 0.00 0.01 0.00 95 1019.4
20260508123057 44 0 0.0 1.0 0.00 0.01 0.00 97 1019.3
20260508121557 41 0 0.0 1.0 0.00 0.01 0.00 96 1019.2
20260508120052 39 0 0.0 0.0 0.00 0.01 0.00 96 1019.0
20260508114554 38 0 0.0 0.0 0.00 0.05 0.00 95 1018.8
20260508113107 38 0 0.0 1.0 0.00 0.05 0.00 95 1018.6
20260508111558 38 0 0.0 0.0 0.00 0.05 0.00 95 1018.4
20260508110051 38 0 0.0 1.0 0.00 0.05 0.00 95 1017.9
20260508104600 39 0 0.0 1.0 0.00 0.15 0.00 95 1017.8
20260508103052 39 0 0.0 1.0 0.00 0.15 0.00 95 1017.6
20260508101551 40 0 0.0 1.0 0.00 0.15 0.00 96 1017.4
20260508100055 40 0 0.0 1.0 0.00 0.15 0.00 95 1017.3
20260508094558 39 0 0.0 0.0 0.00 0.15 0.00 95 1017.2
20260508093056 39 0 0.0 0.0 0.00 0.15 0.00 95 1017.1
20260508091605 40 0 0.0 0.0 0.00 0.15 0.00 95 1017.2
20260508090104 40 0 0.0 2.0 0.00 0.15 0.00 95 1017.0
20260508084554 40 0 0.0 1.0 0.00 0.15 0.00 95 1017.1
20260508083053 40 0 0.0 2.0 0.00 0.15 0.00 95 1017.0
20260508081606 41 0 0.0 2.0 0.00 0.15 0.00 95 1016.7
20260508080054 40 150 0.0 3.0 0.00 0.15 0.00 95 1016.6
20260508074551 41 0 0.0 2.0 0.00 0.15 0.00 95 1016.6
20260508073105 41 0 0.0 1.0 0.00 0.15 0.00 95 1016.7
20260508071604 41 148 0.0 2.0 0.00 0.15 0.00 94 1016.5
20260508070100 42 0 0.0 0.0 0.00 0.15 0.00 94 1016.7
20260508064554 42 0 0.0 0.0 0.00 0.16 0.00 94 1016.6
20260508063053 42 0 0.0 2.0 0.00 0.16 0.00 94 1016.8
20260508061556 43 0 0.0 1.0 0.00 0.16 0.00 94 1016.8
20260508060051 43 0 0.0 1.0 0.00 0.16 0.00 94 1016.7
20260508054605 43 0 0.0 2.0 0.00 0.17 0.00 94 1016.8
20260508053054 43 142 0.0 2.0 0.00 0.17 0.00 94 1016.7
20260508051552 43 0 0.0 0.0 0.00 0.17 0.00 94 1017.0
20260508050057 43 0 0.0 0.0 0.00 0.17 0.00 93 1016.8
20260508044600 43 0 0.0 0.0 0.00 0.29 0.00 93 1016.8
20260508043054 43 0 0.0 2.0 0.00 0.29 0.00 92 1016.6
20260508041554 43 0 0.0 2.0 0.00 0.29 0.00 92 1016.6
20260508040059 43 0 0.0 2.0 0.00 0.29 0.00 91 1016.6
20260508034551 44 0 0.0 1.0 0.00 0.32 0.29 91 1016.6
20260508033115 44 0 0.0 1.0 0.00 0.32 0.29 91 1016.6
20260508031609 44 0 0.0 2.0 0.00 0.32 0.29 91 1016.6
20260508030111 44 0 0.0 2.0 0.00 0.32 0.29 91 1016.6
20260508024621 44 0 0.0 1.0 0.00 0.33 0.29 90 1016.7
20260508023058 44 0 0.0 1.0 0.00 0.33 0.29 90 1016.5
20260508021559 45 0 0.0 1.0 0.00 0.33 0.29 89 1016.0
20260508020107 45 0 0.0 0.0 0.00 0.33 0.29 89 1015.8
20260508014611 46 142 0.0 1.0 0.00 0.38 0.29 88 1015.7
20260508013106 47 0 0.0 0.0 0.00 0.38 0.29 87 1015.5
20260508011601 47 0 0.0 3.0 0.00 0.38 0.29 86 1015.4
20260508010106 48 0 0.0 2.0 0.00 0.38 0.29 85 1015.1
20260508004554 49 142 2.0 3.0 0.00 0.44 0.29 83 1015.0
20260508003056 50 0 0.0 2.0 0.00 0.44 0.29 81 1015.0
20260508001555 52 0 0.0 9.0 0.00 0.44 0.29 76 1014.8
20260508000055 52 114 1.0 6.0 0.00 0.44 0.29 77 1014.5
20260507234553 53 84 1.0 4.0 0.00 0.50 0.29 77 1014.5
20260507233049 53 253 2.0 5.0 0.00 0.50 0.29 76 1014.4
20260507231552 54 121 0.0 5.0 0.00 0.50 0.29 78 1014.2
20260507230053 54 13 3.0 8.0 0.00 0.50 0.29 79 1014.3